www.pogodaiklimat.ru

Погода и климат >> Архив погоды >> Австрия >> Кальванг


ПОГОДА в Кальванге

  • Прогноз погоды в Кальванге
  • Монитор погоды в Кальванге

АРХИВ ПОГОДЫ в Кальванге

Время (UTC), дата Ветер
(напр.,м/с)
 
Видим.   Явления Облачность Т
(С)
Тd
(С)
f
(%)
Тe
(С)
Тes
(С)
Комфортность P
(гПа)
Po
(гПа)
Тmin
(С)
Tmax
(С)
R
(мм)
R24
(мм)
S
(см)
10 18.06 ЮВ 5 н/о н/о +21.0 +14.9 68 +24 +24 комфорт 1015.6 932.4
11 18.06 В 4 н/о н/о +23.1 +14.7 59 +27 +27 душно 1014.5 931.9
12 18.06 В 5 н/о н/о +24.1 +14.4 55 +27 +27 жарко 1013.4 931.2
13 18.06 В 4 н/о н/о +24.8 +13.4 49 +27 +27 жарко 1012.8 930.8
14 18.06 ЮВ 3 н/о н/о +25.3 +13.6 48 +27 +27 жарко 1012.1 930.3
15 18.06 штиль 0 н/о н/о +23.8 +13.5 52 +26 +26 жарко 1012.3 930.1
16 18.06 СЗ 5 н/о н/о +21.4 +12.6 57 +24 +24 комфорт 1013.2 930.2
17 18.06 СЗ 3 н/о н/о +19.9 +13.5 67 +22 +22 комфорт 1014.4 930.9
18 18.06 ЮВ 5 н/о н/о +18.8 +12.2 65 +19 +19 1015.4 931.5 +14.3 +25.3
19 18.06 СВ 3 н/о н/о +16.9 +12.8 77 +17 +17 1016.0 931.6
20 18.06 СВ 1 н/о н/о +15.8 +13.3 85 +16 +16 1016.6 931.8
21 18.06 штиль 0 н/о н/о +15.0 +12.5 85 +15 +15 1016.8 931.8
22 18.06 З 1 н/о н/о +13.9 +12.1 89 +14 +14 1017.0 931.6
23 18.06 штиль 0 н/о н/о +13.6 +12.0 90 +13 +13 1017.1 931.6
00 19.06 З 1 н/о н/о +13.9 +11.5 85 +14 +14 1017.0 931.6
01 19.06 СЗ 2 н/о н/о +13.9 +11.3 84 +13 +13 1016.7 931.3
02 19.06 СЗ 1 н/о н/о +13.5 +10.8 84 +14 +14 1016.6 931.1
03 19.06 СЗ 1 н/о н/о +13.5 +11.0 85 +14 +14 1016.5 931.0
04 19.06 СЗ 2 н/о н/о +12.5 +10.0 85 +12 +12 1016.5 930.7
05 19.06 СЗ 1 н/о н/о +13.1 +11.1 88 +13 +13 1016.4 930.8
06 19.06 СВ 1 н/о н/о +14.6 +12.0 84 +15 +15 1015.8 930.7 +12.4 +19.3 0.0
07 19.06 В 1 н/о н/о +17.6 +13.0 74 +19 +19 1014.2 930.1
08 19.06 В 4 н/о н/о +18.8 +13.5 71 +20 +20 1013.6 929.9
09 19.06 В 5 н/о н/о +20.1 +14.2 69 +22 +22 комфорт 1012.4 929.2
10 19.06 ЮВ 4 н/о н/о +22.4 +14.4 61 +26 +26 жарко 1011.1 928.6
11 19.06 В 5 н/о н/о +22.7 +12.1 51 +25 +25 комфорт 1010.5 928.1
12 19.06 ЮВ 2 н/о н/о +23.1 +12.7 52 +26 +26 жарко 1010.3 928.0 0.0
13 19.06 З 7 н/о н/о +17.2 +12.9 76 +16 +16 1014.0 929.8 5
14 19.06 ЮЗ 2 н/о осадки н/о +16.1 +14.0 87 +16 +16 1014.6 930.1 3
15 19.06 З 2 н/о в посл. час осадки н/о +15.9 +14.5 91 +16 +16 1013.8 929.3 9
16 19.06 В 4 н/о н/о +16.4 +14.4 88 +16 +16 1013.5 929.2
17 19.06 В 1 н/о осадки н/о +15.9 +14.2 90 +17 +17 1014.3 929.8 0.0
18 19.06 З 1 н/о {ливн. осадки} н/о +15.8 +14.3 91 +16 +16 1014.1 929.6 +14.3 +24.1 9
19 19.06 С 1 н/о н/о +15.2 +14.1 93 +16 +16 1013.9 929.2
20 19.06 З 3 н/о н/о +14.4 +13.2 92 +13 +13 1014.3 929.3
21 19.06 З 3 н/о н/о +13.5 +12.1 91 +12 +12 1014.9 929.6
22 19.06 З 3 н/о н/о +13.1 +11.5 90 +12 +12 1014.7 929.3
23 19.06 СЗ 2 н/о н/о +12.2 +11.0 92 +11 +11 1015.2 929.5
00 20.06 В 2 н/о н/о +10.2 +9.2 94 +9 +9 1016.0 929.6
01 20.06 СЗ 1 н/о н/о +11.5 +10.7 95 +11 +11 1015.8 929.8
02 20.06 штиль 0 н/о н/о +11.4 +10.4 94 +11 +11 1015.2 929.2
03 20.06 СЗ 1 н/о н/о +11.1 +10.0 93 +11 +11 1015.4 929.3
04 20.06 СЗ 2 н/о н/о +10.9 +9.7 92 +9 +9 1015.7 929.5
05 20.06 штиль 0 н/о н/о +10.8 +9.8 94 +10 +10 1016.3 930.0
06 20.06 З 4 н/о н/о +14.0 +11.8 87 +13 +13 1015.3 930.1 +10.0 +15.9
07 20.06 СЗ 3 н/о н/о +16.2 +12.3 78 +16 +16 1014.5 930.0
08 20.06 СВ 2 н/о н/о +19.6 +13.4 67 +22 +22 комфорт 1013.1 929.7
09 20.06 З 1 н/о н/о +22.7 +12.9 54 +26 +26 жарко 1012.0 929.5
10 20.06 ЮЗ 2 н/о н/о +24.7 +12.6 47 +27 +27 жарко 1011.2 929.3
11 20.06 З 1 н/о н/о +25.3 +11.5 42 +27 +27 жарко 1010.7 928.9
12 20.06 Ю 1 н/о н/о +25.1 +11.6 43 +27 +27 жарко 1010.4 928.6
13 20.06 З 3 н/о в посл. час осадки н/о +20.6 +11.4 56 +23 +23 комфорт 1012.0 928.9 0.0
14 20.06 СЗ 2 н/о н/о +22.3 +12.6 54 +25 +25 комфорт 1010.6 928.1
15 20.06 ЮВ 1 н/о {осадки} н/о +25.1 +11.9 44 +27 +27 жарко 1008.7 927.0 0.0
16 20.06 В 3 н/о н/о +23.9 +13.0 50 +26 +26 жарко 1009.1 927.1
17 20.06 З 2 н/о н/о +22.7 +11.6 49 +25 +25 комфорт 1010.2 927.8
18 20.06 З 3 н/о осадки н/о +18.8 +13.9 73 +20 +20 1012.5 928.9 +13.6 +26.8 0.2
19 20.06 З 3 н/о н/о +17.4 +13.7 79 +17 +17 1014.0 929.9 0.0
20 20.06 ЮВ 2 н/о н/о +15.4 +13.6 89 +15 +15 1016.1 931.3 10
21 20.06 З 3 н/о в посл. час осадки {ливн. осадки} н/о +14.9 +13.5 91 +14 +14 1016.9 931.9 11
22 20.06 СЗ 2 н/о н/о +14.4 +13.0 91 +14 +14 1017.2 932.0
23 20.06 З 2 н/о н/о +14.1 +13.0 93 +14 +14 1017.5 932.2 0.0
00 21.06 СЗ 2 н/о {осадки} н/о +13.8 +12.5 92 +13 +13 1017.6 932.2 11
01 21.06 З 1 н/о н/о +13.4 +12.1 92 +14 +14 1017.8 932.2
02 21.06 СЗ 2 н/о н/о +13.0 +11.7 92 +12 +12 1018.1 932.4
03 21.06 СЗ 3 н/о н/о +12.6 +11.1 91 +11 +11 1018.4 932.5
04 21.06 З 2 н/о н/о +12.9 +11.1 89 +12 +12 1018.7 932.9
05 21.06 СЗ 2 н/о н/о +12.5 +10.7 89 +12 +12 1018.5 932.6
06 21.06 З 3 н/о н/о +15.2 +12.3 83 +14 +14 1018.3 933.2 +12.3 +19.7 11
07 21.06 З 2 н/о н/о +17.4 +12.5 73 +18 +18 1017.4 933.0
08 21.06 З 4 н/о н/о +18.6 +13.3 71 +19 +19 1016.9 932.9
09 21.06 СЗ 2 н/о н/о +21.0 +12.6 59 +24 +24 комфорт 1016.2 932.9
10 21.06 В 2 н/о н/о +21.2 +12.4 57 +23 +23 комфорт 1015.9 932.6
11 21.06 В 1 н/о н/о +20.9 +14.7 68 +25 +25 комфорт 1016.0 932.7
12 21.06 В 2 н/о н/о +23.0 +12.6 52 +26 +26 жарко 1014.9 932.2
13 21.06 В 2 н/о н/о +23.9 +12.5 49 +26 +26 жарко 1014.0 931.6
14 21.06 В 2 н/о н/о +23.3 +12.6 51 +26 +26 жарко 1013.8 931.3
15 21.06 В 1 н/о н/о +22.2 +14.0 60 +25 +25 комфорт 1014.2 931.4
16 21.06 СВ 5 н/о н/о +19.0 +12.1 64 +20 +20 1016.0 932.1 0.0
17 21.06 ЮВ 2 н/о н/о +17.8 +13.5 76 +18 +18 1016.7 932.5 0.0
18 21.06 штиль 0 н/о н/о +18.1 +14.4 79 +18 +18 1016.8 932.7 +14.9 +24.2 0.0
19 21.06 З 2 н/о н/о +17.6 +14.1 80 +18 +18 1017.4 933.1
20 21.06 СЗ 2 н/о н/о +17.5 +13.9 79 +18 +18 1018.2 933.8
21 21.06 В 2 н/о в посл. час осадки н/о +16.3 +14.2 87 +16 +16 1019.1 934.3 0.0
22 21.06 штиль 0 н/о н/о +16.3 +14.4 89 +16 +16 1019.5 934.7 0.0
23 21.06 СЗ 1 н/о н/о +16.2 +13.1 82 +17 +17 1019.5 934.6 0.0
00 22.06 штиль 0 н/о {осадки} н/о +15.8 +13.6 87 +16 +16 1019.3 934.3 0.0
01 22.06 ЮВ 1 н/о н/о +15.2 +13.3 88 +16 +16 1019.5 934.3
02 22.06 штиль 0 н/о н/о +14.9 +13.2 90 +15 +15 1019.4 934.1 0.0
03 22.06 З 1 н/о н/о +14.4 +13.0 91 +15 +15 1019.5 934.1 0.0
04 22.06 СВ 1 н/о н/о +13.5 +12.4 93 +14 +14 1019.7 934.0
05 22.06 Ю 1 н/о н/о +14.5 +13.2 92 +15 +15 1019.5 934.1
06 22.06 СВ 1 н/о н/о +15.0 +13.6 91 +15 +15 1019.3 934.1 +13.3 +18.3 0.0
07 22.06 ЮВ 3 н/о н/о +16.5 +14.4 87 +16 +16 1018.5 933.8
08 22.06 ЮВ 3 н/о н/о +17.7 +14.4 81 +18 +18 1017.8 933.5
09 22.06 ЮВ 4 н/о н/о +20.2 +14.3 69 +23 +23 комфорт 1016.5 933.0
10 22.06 В 6 н/о осадки н/о +19.1 +14.2 73 +20 +20 1017.1 933.2 0.1
11 22.06 В 5 н/о в посл. час осадки н/о +19.8 +15.0 74 +22 +22 комфорт 1016.2 932.6 0.1
12 22.06 В 1 н/о осадки н/о +17.4 +15.1 86 +18 +18 1017.9 933.5 2
13 22.06 штиль 0 н/о н/о +15.7 +13.9 89 +15 +15 1018.7 933.7 6
14 22.06 В 1 н/о осадки н/о +15.5 +14.3 93 +16 +16 1018.4 933.4 5
15 22.06 В 2 н/о осадки н/о +15.1 +14.1 94 +15 +15 1017.2 932.2 12
16 22.06 В 2 н/о н/о +16.5 +14.2 86 +17 +17 1015.9 931.4 0.0
17 22.06 штиль 0 н/о н/о +16.4 +13.9 85 +16 +16 1015.3 930.8
18 22.06 ЮВ 2 н/о {осадки} н/о +16.4 +14.2 87 +16 +16 1015.2 930.7 +14.9 +20.4 14
19 22.06 ЮВ 1 н/о н/о +15.9 +14.1 89 +17 +17 1015.0 930.4
20 22.06 В 1 н/о н/о +15.6 +14.4 93 +16 +16 1015.1 930.4
21 22.06 штиль 0 н/о н/о +15.4 +14.3 93 +15 +15 1015.9 931.1
22 22.06 Ю 1 н/о н/о +15.1 +14.1 94 +16 +16 1016.3 931.4
23 22.06 Ю 1 н/о н/о +15.1 +14.2 94 +16 +16 1016.0 931.1
00 23.06 З 3 н/о н/о +14.3 +12.5 89 +13 +13 1016.1 930.9
01 23.06 СЗ 2 н/о н/о +14.1 +12.1 88 +14 +14 1016.1 930.9
02 23.06 З 3 н/о н/о +13.7 +11.9 89 +12 +12 1016.2 930.8
03 23.06 З 2 н/о н/о +14.0 +12.0 88 +13 +13 1016.2 930.9
04 23.06 З 2 н/о н/о +14.2 +12.3 88 +14 +14 1016.3 931.1
05 23.06 З 3 н/о н/о +14.4 +12.4 88 +13 +13 1016.6 931.4
06 23.06 З 2 н/о н/о +15.1 +12.3 83 +15 +15 1016.4 931.4 +13.7 +16.5
07 23.06 З 3 н/о осадки н/о +15.6 +12.6 82 +15 +15 1016.8 931.9 0.0
08 23.06 ЮЗ 2 н/о в посл. час осадки н/о +16.0 +12.5 80 +16 +16 1016.9 932.1 0.0
09 23.06 З 2 н/о {осадки} н/о +16.2 +12.6 79 +16 +16 1017.1 932.4 0.0
10 23.06 З 2 н/о н/о +17.0 +13.1 78 +17 +17 1017.1 932.6 0.0
11 23.06 З 2 н/о н/о +17.7 +13.2 75 +18 +18 1017.2 932.9
12 23.06 ЮЗ 1 н/о {осадки} н/о +18.4 +13.7 74 +20 +20 1017.2 933.1 0.0
13 23.06 ЮЗ 1 н/о н/о +19.1 +13.9 72 +21 +21 комфорт 1016.9 933.0 0.0
14 23.06 СЗ 2 н/о в посл. час осадки н/о +19.1 +14.5 75 +21 +21 комфорт 1016.7 932.9 0.1
15 23.06 СЗ 2 н/о в посл. час осадки н/о +18.1 +15.1 83 +19 +19 1017.2 933.1 0.1
16 23.06 СЗ 3 н/о н/о +18.3 +14.1 76 +19 +19 1017.3 933.2 0.0
17 23.06 СЗ 1 н/о н/о +18.4 +14.2 77 +20 +20 1017.5 933.4 0.0
18 23.06 С 1 н/о {ливн. осадки} н/о +18.1 +14.4 79 +19 +19 1018.2 934.0 +14.9 +19.5 0.1
19 23.06 СЗ 2 н/о н/о +17.2 +14.3 83 +18 +18 1018.8 934.3
20 23.06 СЗ 1 н/о в посл. час осадки н/о +16.6 +14.2 86 +17 +17 1020.0 935.2 0.0
21 23.06 СЗ 2 н/о {осадки} н/о +16.1 +13.8 86 +16 +16 1020.5 935.5 0.0
22 23.06 З 1 н/о н/о +16.7 +13.8 83 +18 +18 1020.4 935.6
23 23.06 СЗ 2 н/о н/о +16.2 +13.7 85 +16 +16 1020.6 935.6 0.0
00 24.06 С 1 н/о ливневой дождь {осадки} н/о +16.0 +13.9 87 +17 +17 1020.7 935.7 0.1
01 24.06 СЗ 1 н/о н/о +15.9 +13.8 87 +17 +17 1021.3 936.2 0.0
02 24.06 З 2 н/о н/о +15.8 +13.8 88 +16 +16 1021.0 935.9
03 24.06 СЗ 2 н/о н/о +15.8 +13.7 87 +16 +16 1021.1 936.0 0.0
04 24.06 СЗ 2 н/о н/о +15.1 +13.5 90 +15 +15 1021.7 936.3
05 24.06 СЗ 2 н/о н/о +15.0 +13.2 89 +15 +15 1021.9 936.5
06 24.06 СЗ 2 н/о н/о +15.7 +13.3 86 +16 +16 1021.7 936.5 +14.8 +18.1 0.1
07 24.06 З 4 н/о н/о +18.7 +14.0 74 +19 +19 1020.8 936.5
08 24.06 ЮЗ 3 н/о н/о +21.3 +14.5 65 +24 +24 комфорт 1019.8 936.3 0.0
09 24.06 СЗ 3 н/о н/о +22.2 +12.2 53 +25 +25 комфорт 1019.6 936.3 0.0
10 24.06 З 1 н/о н/о +23.5 +13.0 52 +26 +26 жарко 1019.2 936.3
11 24.06 С 1 н/о н/о +24.1 +12.5 48 +26 +26 жарко 1018.9 936.2
12 24.06 ЮВ 2 н/о н/о +23.5 +13.9 55 +26 +26 жарко 1019.2 936.3 0.0
13 24.06 В 1 н/о н/о +24.7 +13.2 49 +27 +27 жарко 1018.7 936.2
14 24.06 ЮВ 2 н/о н/о +25.6 +13.3 46 +28 +28 жарко 1018.2 935.9
15 24.06 ЮВ 3 н/о н/о +24.8 +13.9 51 +27 +27 жарко 1018.7 936.2
16 24.06 ЮВ 2 н/о н/о +26.0 +13.8 47 +28 +28 жарко 1018.4 936.2
17 24.06 В 3 н/о н/о +24.0 +14.4 55 +27 +27 жарко 1019.1 936.4
18 24.06 В 3 н/о н/о +22.4 +15.9 67 +27 +27 душно 1019.9 936.7 +15.5 +26.2 0.0
19 24.06 З 1 н/о н/о +20.7 +15.1 70 +25 +25 комфорт 1021.0 937.3
20 24.06 З 1 н/о н/о +19.4 +14.6 74 +22 +22 комфорт 1022.4 938.2
21 24.06 З 1 н/о н/о +17.6 +14.0 79 +19 +19 1023.5 938.7
22 24.06 З 1 н/о н/о +16.3 +13.6 84 +17 +17 1024.0 938.8
23 24.06 З 1 н/о н/о +15.5 +13.3 87 +16 +16 1024.2 938.7
00 25.06 СЗ 1 н/о н/о +14.6 +12.9 90 +15 +15 1024.6 938.8
01 25.06 штиль 0 н/о н/о +13.9 +12.6 92 +13 +13 1024.7 938.7 0.0
02 25.06 З 1 н/о н/о +13.4 +12.3 93 +14 +14 1024.7 938.5
03 25.06 СЗ 1 н/о н/о +13.1 +11.9 92 +13 +13 1025.0 938.7 0.0
04 25.06 штиль 0 н/о н/о +12.8 +11.8 94 +12 +12 1025.2 938.8
05 25.06 З 1 н/о н/о +12.9 +11.6 92 +13 +13 1024.9 938.6
06 25.06 СВ 2 н/о н/о +16.0 +13.9 87 +16 +16 1024.0 938.7 +12.4 +23.0 0.0
07 25.06 В 2 н/о н/о +19.3 +15.1 77 +21 +21 комфорт 1022.8 938.5
08 25.06 ЮВ 4 н/о н/о +22.5 +15.8 66 +27 +27 душно 1021.8 938.5
09 25.06 В 6 н/о н/о +25.1 +15.4 55 +28 +28 жарко 1020.7 938.2
10 25.06 В 5 н/о н/о +26.3 +15.5 51 +29 +29 жарко 1020.4 938.2

 

Местоположение метеостанции Кальванг (Австрия): широта 47.42 долгота 14.76 высота над уровнем моря 747 м.

В архиве по умолчанию представлена погода в Кальванге за последнюю неделю. Архивные данные за месяц целиком и за предыдущие месяцы, начиная с января 2011 года, Вы можете получить, выбрав интересующий диапазон дат из раскрывающегося списка и нажав кнопку "Ввод!".


*Определитесь, кто Вы:
робот инопланетянин человек

Внимание! Время в таблицах - всемирное. Для получения местного времени необходимо прибавить поправку, которая равна 1 ч.

Смотрите также архив погоды в соседних городах и на ближайших метеорологических станциях:

Погода в Пребихле (Австрия) (18 км)
Погода в Цельтвеге (Австрия) (24 км)
Погода в Цельтвеге (Австрия) (24 км)
Погода в Леобене (Австрия) (25 км)
Погода в Брукк-ан-дер-Муре (Австрия) (38 км)
Погода в Афленц-Курорте (Австрия) (39 км)
Погода в Капфенберге (Австрия) (41 км)
Погода в Капфенберг аэропорту (Австрия) (43 км)
Погода в Кёфлаге (Австрия) (46 км)
Погода в Ноймаркте (Австрия) (47 км)

Пояснения к столбцам:

Ветер - указаны скорость ветра в м/с - средняя за 10 мин, порывы в срок и между сроками (в фигурных скобках) и направление, откуда дует ветер: С - северный, СВ - северо-восточный, В - восточный, ЮВ - юго-восточный, Ю - южный, ЮЗ - юго-западный, З - западный, СЗ - северо-западный.
Видимость - горизонтальная дальность видимости в метрах или километрах. При видимости от 1 до 10 км при отсутствии осадков обычно наблюдается дымка, при ухудшении видимости до 1 км и менее - туман. В сухую погоду видимость может ухудшаться дымом, пылью или мглою.
Явления - указаны атмосферные явления, наблюдавшиеся в срок или в последний час перед сроком; фигурными скобками обозначены явления, наблюдавшиеся между сроками (за 1-3 часа до срока); квадратными скобками обозначены град или гололедные отложения с указанием их диаметра в мм.
Облачность - указаны через наклонную черту общая и нижняя облачность в баллах и высота нижней границы облаков в метрах; квадратными скобками обозначены формы облаков: Ci - перистые, Cs - перисто-слоистые, Cc - перисто-кучевые, Ac - высококучевые, As - высокослоистые, Sc - слоисто-кучевые, Ns - слоисто-дождевые, Cu - кучевые, Cb - кучево-дождевые. Подробнее классификацию облаков см. в Атласе облаков (PDF).
T - Температура воздуха - температура, измеренная на высоте 2 м над землей.
Td - Температура точки росы - температура, при понижении до которой содержащийся в воздухе водяной пар достигнет насыщения.
f - Относительная влажность воздуха - влажноcть воздуха, измеренная на высоте 2 м над землей.
Te - Эффективная температура - температура, которую ощущает одетый по сезону человек в тени. Характеристика душности погоды. При расчете учитывается влияние влажности воздуха и скорости ветра на теплоощущения человека.
Tes - Эффективная температура на солнце - температура, которую ощущает человек, с поправкой на солнечный нагрев. Характеристика знойности погоды. Зависит от высоты солнца над горизонтом, облачности и скорости ветра. Ночью, в пасмурную погоду, а также при ветре 12 м/с и более поправка равна нулю.
P - Атмосферное давление - приведенное к уровню моря атмосферное давление.
Po - Атмосферное давление - измеренное на уровне метеостанции атмосферное давление.
Tmin - Минимальная температура - минимум температуры воздуха на высоте 2 м над землей.
Tmax - Максимальная температура - максимум температуры воздуха на высоте 2 м над землей.
R - Количество осадков - Количество выпавших осадков за период времени, мм. При наведении курсора мыши на число - период времени, за который выпало указанное количество осадков.
R24 - Количество осадков - Количество выпавших осадков за 24 часа, мм.
S - Снежный покров - Высота снежного покрова, см. При наведении курсора мыши на число - состояние снежного покрова и степень покрытия местности в баллах.